Dewpoint
28 22 16 15 18 22 24 24 31 31 40 40 37 38 42 41 44 48 49 51 51 51 56 58 61 64 63 64 68 69 70 71 71 71 71 71 70 72 72 72 71 71 71 71
22 17 16 16 19 17 17 19 21 27 30 32 40 40 41 40 41 45 48 50 49 51 53 55 57 57 59 65 69 69 72 72 73 73 73 72 71 70 71 71 70 69 69 70
18 16 16 15 14 14 16 13 16 24 28 28 31 39 42 42 41 42 44 49 49 49 52 56 57 58 60 63 67 68 71 71 72 72 73 72 70 68 66 66 67 67 64 64
15 16 15 15 12 12 12 14 13 14 22 22 30 26 42 42 39 42 42 45 47 48 51 54 57 59 60 64 66 69 70 72 72 69 65 65 59 54 64 61 65 63 62 64
10 12 13 14 14 13 12 13 12 13 14 16 20 26 38 39 38 39 41 42 44 47 49 51 54 56 58 63 65 69 72 70 68 65 62 59 60 59 58 58 59 61 63 65
10 11 8 9 11 12 12 20 15 13 14 14 17 26 34 41 44 40 42 41 44 45 48 49 52 55 57 61 63 69 70 68 66 64 61 59 56 59 59 62 61 61 59 59
8 9 12 12 12 14 14 20 19 18 18 17 18 21 31 35 38 43 46 50 43 45 48 50 50 54 57 61 63 68 69 68 66 62 60 55 56 58 60 62 61 59 57 58
8 8 14 13 13 14 15 18 17 18 17 17 21 23 29 27 35 46 47 47 43 43 49 51 53 54 59 61 65 65 68 68 66 63 60 60 60 61 62 64 62 59 59 60
9 13 16 13 14 16 18 18 17 17 15 14 18 21 22 24 26 24 30 28 42 43 45 50 54 58 61 62 64 66 68 68 66 63 65 64 63 62 61 61 62 61 62 60
14 16 13 13 16 16 16 19 16 15 13 15 15 16 17 28 26 26 25 27 33 44 46 47 52 58 62 62 64 66 68 68 65 64 65 64 62 62 63 62 61 62 62 63
15 15 15 13 14 13 15 17 16 15 13 12 15 21 29 30 27 25 26 29 31 34 46 50 52 59 64 62 63 63 65 66 64 62 63 59 57 58 62 61 61 61 63 63
14 14 15 15 15 15 15 17 21 19 20 22 22 19 24 24 24 24 27 29 34 38 43 53 53 59 63 62 62 60 60 63 62 62 63 61 60 59 59 60 61 61 61 62
14 14 14 15 15 15 14 17 16 17 19 22 20 21 28 24 25 27 29 32 40 43 52 55 54 56 62 62 61 59 58 58 59 61 60 60 61 61 62 61 62 61 61 61
17 11 14 11 16 16 16 15 13 14 19 19 20 25 28 28 29 35 35 36 38 47 47 56 56 56 60 62 61 59 56 55 56 58 59 61 62 62 62 62 63 61 62 62
13 18 14 11 12 12 15 16 15 14 17 18 21 26 31 34 33 34 34 33 33 40 49 56 56 57 60 62 60 59 56 56 55 56 57 60 62 62 63 63 62 62 62 62
13 16 15 15 15 12 12 12 17 17 14 14 17 21 32 34 34 31 31 31 33 35 38 48 57 57 61 62 60 59 56 57 57 58 59 60 61 62 62 63 63 62 62 61
21 17 21 17 18 18 15 14 11 14 18 17 21 26 32 33 31 31 32 34 36 38 39 42 53 57 63 62 61 59 58 59 58 59 60 60 60 61 62 62 62 61 60 61
28 30 25 20 24 19 19 20 15 15 17 18 24 28 32 31 30 29 32 34 35 38 41 43 47 56 62 61 60 61 59 59 61 61 61 61 61 62 63 62 61 61 61 61
39 37 27 25 21 22 24 26 26 32 30 25 25 30 31 32 29 37 40 33 37 41 46 49 44 52 60 60 60 61 58 59 60 61 61 62 62 62 62 62 61 61 61 60
33 40 38 28 23 19 25 29 32 35 29 37 36 34 33 32 28 42 43 41 42 43 47 49 50 55 61 60 61 60 57 60 59 60 61 62 62 62 62 62 60 61 61 59
23 26 25 24 23 20 24 33 34 32 34 39 36 36 35 33 37 38 42 42 43 45 49 53 54 57 62 61 60 57 56 58 59 60 61 62 63 63 62 61 62 62 58 55
30 31 28 27 23 22 34 38 34 43 41 40 39 40 38 37 36 35 36 43 45 46 48 53 57 61 62 61 61 57 57 60 62 60 60 61 63 61 60 60 60 63 62 61
28 37 42 43 45 49 40 42 42 42 42 40 40 40 38 37 36 36 38 39 47 48 49 53 57 61 61 59 58 58 59 60 60 60 61 61 59 59 60 59 58 61 61 59
42 43 38 40 49 46 43 39 39 40 39 37 37 38 37 38 38 40 41 44 49 50 52 53 57 59 58 64 65 65 64 63 62 63 63 62 61 61 60 60 59 59 58 56
43 43 39 37 47 45 40 39 38 38 39 39 39 37 38 39 41 45 45 50 54 55 56 60 61 61 60 60 57 61 64 64 64 64 62 62 60 59 58 56 55 56 50 51
30 37 38 38 40 42 38 37 36 35 35 38 40 39 38 40 44 48 54 55 57 58 58 57 58 58 58 61 62 60 57 62 61 60 58 57 56 53 56 57 52 48 48 47
Wind_Speed
20 22 24 22 22 22 18 15 18 18 22 31 16 20 22 22 21 19 20 18 19 18 20 18 22 23 20 17 15 14 12 8 6 7 5 4 6 7 8 9 8 7 5 6
21 28 25 21 23 24 22 13 14 16 19 13 20 24 22 21 21 22 22 20 20 20 21 18 17 14 15 16 19 14 14 10 8 8 6 6 6 8 12 12 8 3 6 5
27 26 27 21 18 19 19 13 12 18 14 5 14 22 19 17 18 22 22 22 22 22 24 22 21 19 17 15 16 14 13 13 9 9 8 7 9 7 7 2 5 5 6 9
28 27 25 22 20 20 23 14 21 18 16 16 20 21 25 32 23 20 23 24 24 25 25 25 23 21 19 18 16 17 13 12 12 6 3 7 3 6 2 2 9 6 6 5
28 26 29 26 23 19 15 19 21 15 14 18 17 14 24 22 23 23 25 26 25 28 27 27 25 22 21 21 18 17 14 10 11 8 5 4 7 9 7 5 4 5 12 10
26 20 22 24 23 19 21 12 21 12 15 24 22 16 9 16 24 23 14 23 26 27 27 26 26 25 20 20 18 18 16 12 10 10 8 4 1 3 5 7 5 10 6 8
28 30 18 16 21 24 21 14 12 14 20 21 19 21 14 25 28 27 29 45 28 26 25 24 27 27 23 23 19 18 17 15 13 10 8 4 3 2 4 7 6 5 9 5
24 26 24 19 26 19 17 20 15 17 18 20 17 11 24 13 18 37 34 37 30 29 27 26 25 26 26 23 21 20 19 17 15 12 9 6 3 4 4 6 6 5 7 6
26 27 26 28 21 20 18 25 22 23 16 9 9 12 13 10 10 6 10 14 24 29 28 28 27 26 25 22 21 20 19 17 16 14 11 8 8 6 3 2 1 7 2 6
23 21 26 21 19 19 20 22 18 21 13 14 11 11 16 20 12 13 11 7 8 23 28 26 28 28 27 23 20 22 19 17 17 15 14 12 11 9 6 4 4 5 6 6
34 24 25 27 19 28 22 16 12 16 16 14 14 6 18 15 10 8 8 9 5 11 21 26 22 26 27 25 23 21 20 18 16 14 13 8 6 7 9 7 7 6 6 6
32 11 20 35 25 29 27 20 12 16 12 11 14 8 17 14 12 11 8 3 7 3 15 24 22 24 26 25 24 23 21 19 16 14 12 11 8 6 5 6 6 5 6 7
26 20 16 19 26 26 23 20 25 22 19 18 17 8 10 9 8 7 6 5 9 13 11 21 20 23 26 27 24 24 22 21 18 15 14 11 10 10 9 7 6 6 6 8
22 26 18 23 22 23 29 28 28 26 21 21 19 9 14 14 12 11 7 7 8 14 15 21 21 23 28 28 26 23 23 21 19 19 17 15 14 11 9 9 8 7 10 10
20 16 21 23 25 23 21 29 26 27 26 25 17 11 6 5 10 1 2 4 7 7 18 21 24 23 26 25 25 23 21 16 17 15 12 12 13 12 11 11 9 10 11 10
15 12 15 23 22 23 27 28 29 30 29 30 26 23 30 20 15 8 1 5 9 7 11 12 25 25 28 27 26 23 20 16 11 15 15 13 13 15 14 13 12 12 11 8
20 20 20 22 22 25 29 27 27 23 23 21 20 8 16 15 4 2 2 5 8 9 10 15 16 22 22 27 26 24 19 17 16 14 13 13 13 12 13 13 13 10 6 9
15 22 20 24 24 28 24 25 22 18 19 20 23 22 11 7 2 2 1 7 6 10 11 13 10 13 21 25 25 22 20 18 18 18 16 15 15 15 15 15 13 9 9 11
21 8 18 25 25 19 25 7 8 21 20 12 9 11 4 7 4 8 15 6 1 5 6 10 10 13 22 25 25 22 21 20 18 19 18 16 16 16 15 15 13 10 11 12
31 39 33 5 16 25 21 11 6 21 17 23 26 2 13 6 7 8 12 6 2 4 4 6 7 11 22 24 25 23 21 22 22 21 19 17 17 15 15 15 12 8 7 8
22 13 17 18 19 25 18 6 14 12 17 21 3 9 8 6 11 11 6 5 3 5 5 6 7 12 20 19 24 23 21 18 21 19 18 17 17 15 13 9 6 7 11 9
24 9 16 20 22 25 12 13 14 11 11 8 12 15 8 5 6 10 16 6 10 9 9 10 10 16 17 16 17 22 21 17 12 13 13 12 14 12 9 6 5 8 7 12
14 15 13 2 2 28 15 21 21 9 10 9 7 6 6 8 10 11 12 20 12 11 10 11 13 15 16 17 11 11 7 3 1 4 7 7 5 7 5 5 6 9 14 17
7 10 1 8 12 6 12 19 15 12 7 3 4 4 7 10 13 12 11 16 9 10 13 11 13 15 15 14 14 6 6 3 2 4 5 5 6 5 6 10 12 14 7 1
20 8 9 15 16 16 17 12 9 9 9 10 10 11 13 13 13 12 11 4 10 10 14 19 20 23 26 19 24 26 22 12 7 7 3 6 8 10 13 13 13 8 10 6
11 4 1 15 14 13 14 8 13 11 11 10 12 12 11 13 15 7 10 12 13 17 14 17 16 15 16 8 5 13 2 4 4 6 8 7 6 8 5 11 8 20 14 13
Wind_Direction
205 211 217 214 203 225 212 220 161 245 158 162 176 172 177 185 164 176 173 178 177 176 159 159 163 171 178 168 147 143 154 148 146 157 185 225 239 234 248 252 250 253 259 269
196 215 220 220 213 231 236 207 205 203 156 180 154 183 190 189 175 175 179 183 186 172 156 162 153 173 160 156 154 160 156 158 173 191 198 223 231 227 221 228 215 219 290 194
206 212 230 230 214 228 249 235 222 200 154 182 199 156 159 255 195 176 183 184 186 176 168 170 170 178 169 157 153 158 159 171 180 198 195 204 236 242 266 13 147 99 13 333
224 212 221 232 229 207 231 218 258 229 179 214 183 232 172 217 189 196 192 185 189 182 174 174 180 181 172 161 163 157 166 170 169 133 14 96 353 289 51 293 80 16 341 357
215 230 213 224 233 230 238 226 230 238 240 235 234 231 164 186 190 199 202 193 195 183 182 180 185 181 172 163 168 156 164 142 125 125 61 32 22 7 6 48 16 324 270 256
235 219 223 211 226 220 222 252 207 224 252 252 231 217 172 186 212 213 240 214 197 189 186 183 181 173 172 163 169 161 141 141 145 146 152 156 167 36 340 6 330 279 355 285
221 231 202 209 205 214 213 206 209 228 233 242 239 226 236 180 217 209 179 224 198 193 188 185 179 173 173 166 172 150 153 163 162 173 164 146 117 104 242 223 269 10 297 21
210 221 199 203 214 202 195 219 212 209 233 232 211 188 225 194 177 201 206 204 195 191 188 184 183 173 169 169 168 162 164 170 174 180 157 114 118 257 229 57 41 335 328 338
199 226 191 208 221 191 188 233 239 256 266 260 187 203 225 167 164 163 182 215 195 188 192 185 177 169 169 175 172 159 165 179 179 175 157 171 180 194 283 34 355 273 4 334
198 222 188 209 206 224 218 207 233 248 259 278 238 237 220 161 162 175 184 214 230 197 187 190 183 171 169 178 173 158 169 186 184 172 168 199 180 178 192 192 237 266 267 271
234 205 194 194 194 215 209 229 218 244 230 251 255 82 103 139 157 150 169 179 197 232 202 185 185 173 170 176 174 167 171 187 187 182 174 164 169 189 183 200 228 250 278 281
234 243 248 196 197 207 226 199 214 243 256 275 299 309 136 143 154 172 129 177 156 209 275 175 183 173 170 177 175 175 175 184 194 179 172 166 176 192 206 207 234 257 273 275
219 234 243 235 201 199 221 218 215 224 241 259 254 199 125 155 148 128 131 70 169 170 170 174 191 186 176 180 181 178 180 187 186 183 166 169 178 183 201 221 237 251 260 262
217 215 229 241 229 198 203 217 233 250 236 238 237 212 183 201 174 148 191 194 189 187 201 184 193 195 185 182 179 179 180 188 186 178 181 175 176 187 202 218 229 242 253 261
217 225 236 232 258 264 239 212 220 237 261 270 251 229 214 191 197 89 61 289 268 246 200 195 194 198 187 178 176 176 177 190 178 175 167 169 170 182 194 218 225 241 257 263
193 214 232 250 252 243 251 263 210 215 226 243 253 246 198 191 156 170 293 306 292 249 258 239 198 196 180 176 177 167 174 171 165 174 182 175 186 185 198 218 223 229 245 278
194 206 224 240 241 254 256 247 250 240 228 235 258 277 108 139 150 34 359 300 292 299 286 284 213 191 176 169 168 172 172 163 177 187 195 185 195 196 207 217 224 224 253 268
226 220 210 233 243 243 247 264 251 247 240 242 218 210 141 95 9 249 142 268 295 281 280 285 224 187 167 164 169 169 168 175 181 191 198 197 198 204 210 216 224 218 230 248
352 264 214 226 231 244 252 294 39 37 324 286 258 217 195 89 327 26 11 206 246 290 288 273 258 191 167 169 168 168 172 183 191 198 201 202 204 211 217 220 222 219 228 248
197 172 251 239 244 252 261 189 99 356 304 13 14 326 182 150 284 89 61 47 354 301 277 244 225 176 159 168 161 169 178 185 196 201 201 201 209 214 221 226 210 197 219 263
232 218 240 227 248 263 282 117 105 196 249 306 327 66 27 350 23 17 134 176 206 236 210 203 202 172 151 164 160 172 184 198 202 198 197 202 209 209 215 203 163 202 242 270
270 243 251 245 248 248 324 104 159 90 96 40 31 35 44 10 337 333 331 256 185 206 184 182 163 137 149 169 164 178 189 206 196 198 203 205 203 204 187 195 191 230 242 256
217 179 183 289 6 332 63 95 101 89 75 50 35 353 318 292 297 302 310 309 194 186 184 184 155 154 166 171 178 160 140 124 200 195 199 213 190 166 203 218 189 236 244 246
68 10 244 157 139 139 315 62 50 53 52 23 31 339 335 326 323 324 306 301 190 188 166 174 171 157 167 136 100 87 128 123 201 241 223 187 159 196 229 237 217 225 286 333
252 86 331 269 51 227 82 73 53 45 31 20 10 358 352 340 323 310 286 258 87 73 80 76 81 75 55 25 62 53 14 41 4 288 224 223 231 219 237 53 353 85 71 55
1 100 123 72 50 62 60 35 60 31 12 13 9 354 348 335 328 326 86 84 93 88 86 89 81 88 89 106 170 119 120 179 220 235 204 234 263 289 154 147 105 61 94 93